Simultaneous Nadir Overpasses (SNOs) Predictions

Prediction of SNOs between NOAA-20 and NOAA-19 Satellite Orbit:

Table of predicted SNOs for the next 14.0 days since TLE Epoch: 7/19/2025
Index Date (NOAA-20) Time (NOAA-20) Lat,Lon (NOAA-20) SZA (NOAA-20 ) Date (NOAA-19) Time (NOAA-19) Lat,Lon (NOAA-19) SZA (NOAA-19 ) Distance(km) Time Diff (sec)
1 07/26/2025 13:11:48 -70.23, 157.90 129.06 07/26/2025 13:10:38 -70.22, 156.34 128.98 58.61 70
2 07/26/2025 14:02:44 70.73, -35.60 51.49 07/26/2025 14:01:29 70.75, -35.54 51.52 3.14 75
3 07/26/2025 14:53:28 -70.76, 131.68 128.48 07/26/2025 14:52:24 -70.76, 131.75 128.47 2.54 64
4 07/26/2025 15:44:15 70.79, -61.07 51.57 07/26/2025 15:43:25 70.77, -60.99 51.55 3.53 50
5 07/26/2025 16:34:58 -70.77, 106.29 128.46 07/26/2025 16:34:20 -70.78, 106.29 128.44 1.67 38
6 07/26/2025 17:25:45 70.80, -86.45 51.59 07/26/2025 17:25:21 70.79, -86.44 51.59 0.57 24
7 07/26/2025 18:16:29 -70.82, 80.83 128.38 07/26/2025 18:16:16 -70.80, 80.84 128.40 2.62 13
8 07/26/2025 19:07:15 70.80,-111.83 51.61 07/26/2025 19:07:17 70.81,-111.89 51.62 2.39 2
9 07/26/2025 19:57:59 -70.83, 55.44 128.36 07/26/2025 19:58:12 -70.82, 55.39 128.37 2.03 13
10 07/26/2025 20:48:46 70.86,-137.30 51.68 07/26/2025 20:49:13 70.83,-137.34 51.66 3.16 27
11 07/26/2025 21:39:30 -70.88, 29.97 128.28 07/26/2025 21:40:07 -70.89, 30.03 128.29 2.19 37
12 07/26/2025 22:30:17 70.92,-162.77 51.76 07/26/2025 22:31:08 70.90,-162.70 51.74 3.01 51
13 07/26/2025 23:21:00 -70.89, 4.59 128.26 07/26/2025 23:22:03 -70.91, 4.58 128.26 2.22 63
14 07/27/2025 00:11:49 71.02, 171.67 51.89 07/27/2025 00:13:02 71.03, 172.03 51.87 13.14 73
15 07/27/2025 01:02:40 -71.41, -21.68 127.69 07/27/2025 01:03:50 -71.39, -20.05 127.79 58.15 70



Historial Predications of SNOs between NOAA-20 and NOAA-19
